[[{"header":{"parameterUnit":"m.s-1","parameterCategory":1,"la1":30.2991,"la2":30.254,"lo1":-89.0895,"lo2":-89.0444,"dy":0.0017,"dx":0.0017,"nx":28,"ny":28,"refTime":"2024-12-11T03:00:00:Z","depth":0,"parameterNumber":2,"parameterNumberName":"U-component_of_WINDS"},"data":[0,0,0,0,0,0,0,0,0,0,0,0,0,0,0,0,0,0,0,0,0,0,0,0,0,0,0,0,0,0,0,0,0,0,0,0,0,0,0,0,0,0,0,0,0,0,0,0,0,0,0,0,0,0,0,0,0,0,1.794,1.7939,0,1.7898,1.7898,1.7897,1.7801,1.7799,1.7797,1.7795,1.7756,1.7756,1.7757,0,0,0,0,0,0,0,0,0,0,0,0,0,1.7939,1.7939,1.794,1.7939,1.7939,1.7898,1.7898,1.7897,1.7801,1.7799,1.7796,1.7794,1.7755,1.7756,1.7757,0,0,0,0,0,0,0,0,0,0,0,0,0,1.7923,1.794,1.794,1.7886,1.7881,1.7899,1.7898,1.7897,1.7802,1.7799,1.7796,1.7793,1.7755,1.7756,1.7757,1.7825,0,0,1.7761,1.7762,0,0,0,0,0,0,0,0,1.7924,1.7923,1.7894,1.789,1.7884,1.7852,1.7883,1.7873,1.7802,1.7832,1.7795,1.7791,1.779,1.7788,1.7787,1.7824,1.7822,1.7761,1.7762,1.7763,1.7763,0,0,0,0,0,0,0,1.7925,1.7924,1.7923,1.7894,1.7888,1.7865,1.7859,1.7881,1.7829,1.7829,1.7822,1.7818,1.7787,1.7786,1.7786,1.7821,1.7761,1.7762,1.7763,1.7764,1.7913,1.7916,0,0,0,0,0,0,1.7934,1.7926,1.7925,1.7922,1.7897,1.7867,1.7861,1.7865,1.7828,1.7819,1.7821,1.7814,1.7786,1.7784,1.7784,1.7863,1.7763,1.7764,1.7764,1.791,1.7914,1.7917,0,0,0,0,0,0,1.7934,1.7934,1.7926,1.7922,1.7919,1.787,1.7876,1.7866,1.7865,1.7822,1.7812,1.783,1.7783,1.7782,1.7816,1.786,1.7764,1.7765,1.7906,1.7911,1.7916,1.802,0,0,0,0,0,0,1.7934,1.7935,1.796,1.7923,1.792,1.7959,1.7878,1.7867,1.7867,1.7858,1.7828,1.782,1.7781,1.7815,1.7817,1.786,1.7766,1.7902,1.7908,1.7914,1.8012,1.8028,1.8041,0,0,0,0,0,1.7935,1.7991,1.7961,1.7962,1.7949,1.7961,1.7959,1.7913,1.7871,1.7896,1.7868,1.7821,1.7854,1.7819,1.7821,1.7865,1.7899,1.7907,1.7914,1.8006,1.8025,1.8041,0,0,0,0,0,0,1.8035,1.7985,1.7952,1.7998,1.7985,1.7945,1.7975,1.7934,1.7932,1.7924,1.7866,1.7861,1.7903,1.7887,1.7848,1.7929,1.7869,1.7877,1.7939,1.7956,1.797,1.7974,1.7767,0,0,0,0,0,1.8062,1.8075,1.8031,1.8076,1.8071,1.8025,1.8028,1.7993,1.7977,1.7971,1.7946,1.7933,1.7941,1.7947,1.7952,1.8009,1.8002,1.804,1.8054,1.8066,1.8075,1.8106,1.8123,1.7941,1.7941,1.7941,0,0,1.8119,1.8093,1.8105,1.8096,1.8081,1.8097,1.802,1.804,1.8052,1.7974,1.8005,1.7986,1.7968,1.8015,1.8034,1.8003,1.8123,1.8076,1.8085,1.8087,1.8115,1.8132,1.8147,1.7946,1.7945,1.7945,0,0,1.8231,1.8212,1.8248,1.8235,1.8214,1.8183,1.8191,1.8158,1.8143,1.8172,1.8115,1.8128,1.8142,1.8132,1.8129,1.8238,1.8196,1.8241,1.8317,1.8348,1.8362,1.8374,1.8415,1.8431,1.8249,1.825,1.825,0,1.8305,1.8325,1.8272,1.8296,1.8294,1.8224,1.8261,1.8251,1.8233,1.8234,1.8199,1.8216,1.8199,1.8243,1.827,1.8269,1.8279,1.8246,1.8364,1.8376,1.8387,1.8425,1.8441,1.8256,1.8255,1.8254,1.8254,0,1.8418,1.8433,1.8465,1.8449,1.845,1.8481,1.8434,1.8442,1.8407,1.838,1.8412,1.8389,1.8389,1.8396,1.8362,1.8436,1.8417,1.8374,1.8313,1.8411,1.8446,1.846,1.8264,1.8262,1.826,1.8259,0,0,1.8593,1.8547,1.856,1.8552,1.8524,1.8535,1.8563,1.8561,1.8571,1.856,1.8584,1.8597,1.8557,1.8554,1.8518,1.8545,1.8636,1.8498,1.8497,1.8526,1.8718,1.8752,1.877,1.8606,1.8608,1.861,1.872,0,1.8699,1.8744,1.8697,1.8751,1.8766,1.87,1.8724,1.871,1.8686,1.8695,1.8668,1.868,1.8625,1.8623,1.8646,1.862,1.8674,1.8611,1.8629,1.863,1.8638,1.8788,1.8824,1.8929,1.8733,1.8736,1.8737,0,1.883,1.8826,1.8882,1.8851,1.8855,1.8878,1.8874,1.8883,1.8866,1.8847,1.8843,1.88,1.8827,1.8766,1.8802,1.8761,1.8765,1.8754,1.8756,1.8758,1.8691,1.8796,1.8961,1.8977,1.8758,1.8756,1.8755,0,1.8955,1.8963,1.8997,1.8993,1.8957,1.8975,1.8961,1.8941,1.8944,1.894,1.8942,1.8942,1.8942,1.8944,1.8902,1.8861,1.8946,1.888,1.8932,1.8933,1.8954,1.8954,1.9124,1.8954,1.8954,1.8953,1.8953,0,1.908,1.9117,1.9053,1.9075,1.9115,1.9062,1.9103,1.9083,1.9066,1.9083,1.9025,1.9044,1.8986,1.8999,1.8967,1.9003,1.9003,1.899,1.8981,1.8996,1.8998,1.9,1.8992,1.8957,1.8956,1.8956,1.8955,0,1.9227,1.9185,1.9219,1.9182,1.9174,1.9205,1.9174,1.9194,1.9165,1.9189,1.9191,1.9147,1.9159,1.9117,1.9122,1.91,1.9155,1.9133,1.9161,1.9155,1.9209,1.9206,1.9389,1.9411,1.9225,1.9226,1.9228,0,1.931,1.9337,1.9304,1.9311,1.93,1.9312,1.9314,1.9263,1.9268,1.9252,1.9274,1.928,1.9283,1.9305,1.9275,1.9279,1.9258,1.9321,1.9258,1.9273,1.9261,1.9261,1.9265,1.9336,1.9338,1.934,1.9341,0,1.9464,1.9442,1.9447,1.9446,1.945,1.9446,1.9439,1.9448,1.9393,1.9402,1.9413,1.9415,1.942,1.9428,1.9426,1.9412,1.9369,1.9361,1.9374,1.939,1.9406,1.94,1.9199,1.9358,1.9356,1.9355,1.9354,1.9353,1.9583,1.9604,1.9584,1.9592,1.9581,1.9576,1.9593,1.9566,1.9574,1.9574,1.9543,1.9561,1.9544,1.9536,1.9528,1.9542,1.9512,1.953,1.9535,1.954,1.9551,1.9402,1.9541,1.954,1.954,1.9539,1.9539,0,1.9735,1.9719,1.9727,1.9718,1.9725,1.9681,1.9671,1.968,1.9696,1.9684,1.9688,1.9702,1.971,1.968,1.9684,1.9701,1.9681,1.9704,1.9703,1.9701,1.9576,1.9566,1.972,1.972,1.972,1.972,1.972,1.972,1.9815,1.985,1.9826,1.9856,1.9839,1.9855,1.9854,1.9849,1.9839,1.9857,1.9863,1.9843,1.9824,1.9827,1.9833,1.9823,1.9829,1.9859,1.9844,1.9727,1.971,1.9693,1.9683,1.986,1.986,1.9968,1.9969,1.997]},{"header":{"parameterUnit":"m.s-1","parameterCategory":1,"la1":30.2991,"la2":30.254,"lo1":-89.0895,"lo2":-89.0444,"dy":0.0017,"dx":0.0017,"nx":28,"ny":28,"refTime":"2024-12-11T03:00:00:Z","depth":0,"parameterNumber":3,"parameterNumberName":"V-component_of_WINDS"},"data":[0,0,0,0,0,0,0,0,0,0,0,0,0,0,0,0,0,0,0,0,0,0,0,0,0,0,0,0,0,0,0,0,0,0,0,0,0,0,0,0,0,0,0,0,0,0,0,0,0,0,0,0,0,0,0,0,0,0,4.6293,4.6294,0,4.6372,4.6373,4.6374,4.6336,4.6334,4.6332,4.6331,4.6408,4.6412,4.6416,0,0,0,0,0,0,0,0,0,0,0,0,0,4.6108,4.6111,4.6293,4.6294,4.6295,4.6372,4.6373,4.6374,4.6337,4.6334,4.6332,4.633,4.6407,4.6412,4.6416,0,0,0,0,0,0,0,0,0,0,0,0,0,4.6188,4.6113,4.6293,4.6286,4.6286,4.6372,4.6373,4.6374,4.6337,4.6334,4.6331,4.6329,4.6406,4.6411,4.6417,4.6513,0,0,4.6435,4.6438,0,0,0,0,0,0,0,0,4.6183,4.6194,4.6286,4.6287,4.6287,4.6341,4.6336,4.6421,4.6338,4.6318,4.6331,4.6327,4.6388,4.6395,4.6417,4.6517,4.652,4.6436,4.6439,4.6442,4.6443,0,0,0,0,0,0,0,4.6178,4.6191,4.6324,4.6287,4.6288,4.6278,4.6286,4.6352,4.6369,4.6319,4.6317,4.6327,4.6388,4.6411,4.6418,4.6521,4.6435,4.6441,4.6444,4.6447,4.6705,4.6708,0,0,0,0,0,0,4.6173,4.6186,4.6322,4.6327,4.6227,4.6284,4.6293,4.6327,4.6368,4.6371,4.6329,4.6325,4.6402,4.6411,4.6421,4.6537,4.6442,4.6447,4.6451,4.6702,4.6706,4.6709,0,0,0,0,0,0,4.6169,4.6185,4.6318,4.6256,4.6272,4.629,4.6329,4.633,4.6353,4.6376,4.6378,4.635,4.64,4.6412,4.6491,4.6539,4.645,4.6455,4.6698,4.6703,4.6707,4.677,0,0,0,0,0,0,4.6164,4.6184,4.6221,4.6257,4.6276,4.6388,4.6332,4.6334,4.6364,4.6359,4.6396,4.6399,4.6399,4.6482,4.6497,4.6546,4.646,4.6693,4.67,4.6706,4.6764,4.6777,4.6788,0,0,0,0,0,4.6157,4.6235,4.6224,4.624,4.6323,4.6391,4.6402,4.6401,4.6368,4.6405,4.642,4.6398,4.6531,4.6491,4.6507,4.6558,4.669,4.6698,4.6705,4.6759,4.6774,4.6787,0,0,0,0,0,0,4.6204,4.624,4.6227,4.6319,4.6353,4.6385,4.6432,4.6418,4.6461,4.6454,4.645,4.6459,4.6541,4.6557,4.6511,4.6654,4.6606,4.6617,4.6641,4.6656,4.6667,4.6662,4.6465,0,0,0,0,0,4.6225,4.6278,4.6306,4.6384,4.6402,4.6414,4.6444,4.6441,4.6475,4.6489,4.6509,4.6542,4.6591,4.6624,4.667,4.6765,4.6773,4.6809,4.682,4.683,4.684,4.6892,4.6909,4.6734,4.6734,4.6734,0,0,4.6268,4.6295,4.6328,4.6394,4.642,4.6475,4.6426,4.6486,4.6527,4.6497,4.6574,4.6589,4.6626,4.6713,4.6753,4.6729,4.689,4.684,4.6847,4.6852,4.6902,4.6918,4.6933,4.6739,4.6738,4.6737,0,0,4.6377,4.6402,4.6471,4.6497,4.6537,4.6545,4.6561,4.6596,4.6606,4.6682,4.6661,4.6709,4.6794,4.6821,4.6846,4.6965,4.6947,4.698,4.7043,4.7094,4.7108,4.712,4.7164,4.7179,4.699,4.699,4.699,0,4.6426,4.6509,4.6507,4.657,4.6599,4.6576,4.6645,4.6671,4.6723,4.6744,4.6717,4.6824,4.6847,4.6941,4.697,4.699,4.7009,4.6977,4.7106,4.7118,4.713,4.7171,4.7188,4.6994,4.6993,4.6993,4.6992,0,4.6569,4.6626,4.6677,4.673,4.6765,4.683,4.6838,4.6873,4.6867,4.6877,4.6955,4.6981,4.7034,4.7055,4.7049,4.7149,4.7133,4.7106,4.7058,4.715,4.7189,4.7205,4.6999,4.6998,4.6997,4.6996,0,0,4.671,4.6761,4.678,4.6804,4.6846,4.689,4.6954,4.7006,4.7037,4.7074,4.7128,4.72,4.7176,4.7204,4.72,4.7245,4.7339,4.7212,4.7213,4.7237,4.7452,4.7474,4.7492,4.7326,4.7329,4.7332,4.7449,0,4.6823,4.6937,4.6937,4.7041,4.7095,4.7073,4.7129,4.716,4.7171,4.7218,4.7229,4.7281,4.7244,4.7262,4.7304,4.7319,4.7382,4.731,4.7377,4.7379,4.737,4.7512,4.7535,4.7645,4.7464,4.7467,4.7469,0,4.697,4.7013,4.7124,4.7159,4.7181,4.7232,4.728,4.7324,4.7359,4.7364,4.7396,4.7386,4.745,4.7399,4.7488,4.7438,4.7465,4.7476,4.748,4.7488,4.7431,4.7525,4.768,4.7697,4.7493,4.7491,4.7489,0,4.7064,4.7149,4.7227,4.7248,4.729,4.7327,4.7346,4.7377,4.7409,4.745,4.7471,4.7518,4.7545,4.7582,4.7584,4.7546,4.7674,4.7623,4.768,4.768,4.771,4.7708,4.7873,4.7724,4.7724,4.7723,4.7723,0,4.7191,4.726,4.727,4.7318,4.7395,4.7393,4.7469,4.7484,4.7513,4.7563,4.7545,4.7592,4.7592,4.7639,4.7641,4.7715,4.7726,4.7732,4.7732,4.7735,4.7735,4.7754,4.7747,4.7728,4.7727,4.7726,4.7725,0,4.731,4.7319,4.7403,4.7436,4.7446,4.7501,4.753,4.7575,4.7584,4.7648,4.7662,4.7677,4.7732,4.7737,4.7801,4.7802,4.7892,4.7883,4.7881,4.788,4.7938,4.7933,4.8122,4.8148,4.7981,4.7982,4.7984,0,4.7392,4.7445,4.7484,4.7517,4.7539,4.7592,4.7624,4.7624,4.7658,4.7702,4.7743,4.7796,4.784,4.7929,4.7944,4.7993,4.7986,4.8048,4.7993,4.7994,4.7989,4.7986,4.7992,4.806,4.8062,4.8063,4.8064,0,4.7536,4.7538,4.7586,4.7637,4.7677,4.7716,4.7752,4.778,4.7784,4.7823,4.7881,4.7914,4.798,4.8034,4.8081,4.81,4.8083,4.8081,4.8098,4.8102,4.81,4.8104,4.7913,4.8078,4.8076,4.8075,4.8075,4.8074,4.764,4.7687,4.7722,4.7776,4.7804,4.7839,4.7884,4.7899,4.7947,4.8002,4.7998,4.8061,4.8094,4.8157,4.8179,4.8228,4.8207,4.823,4.8236,4.8242,4.8249,4.8091,4.8236,4.8236,4.8235,4.8235,4.8235,0,4.7785,4.7807,4.7857,4.791,4.7952,4.7933,4.7973,4.801,4.8066,4.8099,4.8142,4.8208,4.826,4.828,4.833,4.8366,4.8359,4.8379,4.8377,4.8382,4.8264,4.8246,4.8383,4.8383,4.8383,4.8383,4.8383,4.8383,4.7866,4.7944,4.795,4.8042,4.8062,4.8126,4.815,4.8182,4.8208,4.8283,4.8327,4.8339,4.8367,4.8419,4.8466,4.847,4.849,4.8514,4.8515,4.8405,4.839,4.8376,4.8359,4.8518,4.8518,4.8629,4.863,4.8631]}]]